Time,TemperatureF,DewpointF,PressureIn,WindDirection,WindDirectionDegrees,WindSpeedMPH,WindSpeedGustMPH,Humidity,HourlyPrecipIn,Conditions,Clouds,dailyrainin,SolarRadiationWatts/m^2,SoftwareType,DateUTC
2013-08-08 00:01:00,72.4,57.7,29.70,NE,49,0.0,0.0,60,0.00,,,0.00,0,WeatherCatV1.21B27,2013-08-08 06:01:00,
2013-08-08 00:06:00,72.3,57.2,29.70,NE,49,0.0,0.0,59,0.00,,,0.00,0,WeatherCatV1.21B27,2013-08-08 06:06:00,
2013-08-08 00:11:00,72.0,57.3,29.69,NE,49,0.0,0.0,60,0.00,,,0.00,0,WeatherCatV1.21B27,2013-08-08 06:11:00,
2013-08-08 00:16:00,71.7,57.5,29.70,NE,49,0.0,0.0,61,0.00,,,0.00,0,WeatherCatV1.21B27,2013-08-08 06:16:00,
2013-08-08 00:21:00,71.4,58.1,29.70,NE,49,0.0,0.0,63,0.00,,,0.00,0,WeatherCatV1.21B27,2013-08-08 06:21:00,
2013-08-08 00:26:00,71.2,58.4,29.70,NE,49,0.0,0.0,64,0.00,,,0.00,0,WeatherCatV1.21B27,2013-08-08 06:26:00,
2013-08-08 00:31:00,71.0,58.2,29.70,NE,49,0.0,0.0,64,0.00,,,0.00,0,WeatherCatV1.21B27,2013-08-08 06:31:00,
2013-08-08 00:36:00,70.8,58.0,29.70,NE,49,0.0,0.0,64,0.00,,,0.00,0,WeatherCatV1.21B27,2013-08-08 06:36:00,
2013-08-08 00:41:00,70.6,57.4,29.70,NE,50,0.0,2.0,63,0.00,,,0.00,0,WeatherCatV1.21B27,2013-08-08 06:41:00,
2013-08-08 00:46:00,70.8,57.1,29.70,NE,50,0.0,0.0,62,0.00,,,0.00,0,WeatherCatV1.21B27,2013-08-08 06:46:00,
2013-08-08 00:51:00,71.0,57.3,29.70,NE,50,0.0,0.0,62,0.00,,,0.00,0,WeatherCatV1.21B27,2013-08-08 06:51:00,
2013-08-08 00:56:00,71.1,57.0,29.70,NE,50,0.0,0.0,61,0.00,,,0.00,0,WeatherCatV1.21B27,2013-08-08 06:56:00,
2013-08-08 01:01:00,71.2,57.0,29.70,NE,50,0.0,0.0,61,0.00,,,0.00,0,WeatherCatV1.21B27,2013-08-08 07:01:00,
2013-08-08 01:06:00,71.2,57.0,29.70,NE,50,0.0,0.0,61,0.00,,,0.00,0,WeatherCatV1.21B27,2013-08-08 07:06:00,
2013-08-08 01:11:00,71.1,57.0,29.70,NE,50,0.0,0.0,61,0.00,,,0.00,0,WeatherCatV1.21B27,2013-08-08 07:11:00,
2013-08-08 01:16:00,70.9,56.8,29.70,NE,50,0.0,0.0,61,0.00,,,0.00,0,WeatherCatV1.21B27,2013-08-08 07:16:00,
2013-08-08 01:21:00,70.7,56.6,29.70,NE,50,0.0,0.0,61,0.00,,,0.00,0,WeatherCatV1.21B27,2013-08-08 07:21:00,
2013-08-08 01:26:00,70.4,56.8,29.70,NE,50,0.0,0.0,62,0.00,,,0.00,0,WeatherCatV1.21B27,2013-08-08 07:26:00,
2013-08-08 01:31:00,70.1,56.5,29.70,NE,50,0.0,0.0,62,0.00,,,0.00,0,WeatherCatV1.21B27,2013-08-08 07:31:00,
2013-08-08 01:36:00,69.8,56.6,29.70,NE,50,0.0,0.0,63,0.00,,,0.00,0,WeatherCatV1.21B27,2013-08-08 07:36:00,
2013-08-08 01:41:00,69.6,56.9,29.70,NE,50,0.0,0.0,64,0.00,,,0.00,0,WeatherCatV1.21B27,2013-08-08 07:41:00,
2013-08-08 01:46:00,69.3,56.6,29.70,NE,50,0.0,0.0,64,0.00,,,0.00,0,WeatherCatV1.21B27,2013-08-08 07:46:00,
2013-08-08 01:51:00,69.1,56.8,29.70,NE,50,0.0,0.0,65,0.00,,,0.00,0,WeatherCatV1.21B27,2013-08-08 07:51:00,
2013-08-08 01:56:00,69.0,58.0,29.70,NE,50,0.0,0.0,68,0.00,,,0.00,0,WeatherCatV1.21B27,2013-08-08 07:56:00,
2013-08-08 02:01:00,68.8,57.8,29.70,NE,50,0.0,0.0,68,0.00,,,0.00,0,WeatherCatV1.21B27,2013-08-08 08:01:00,
2013-08-08 02:06:00,68.5,57.1,29.70,NE,50,0.0,0.0,67,0.00,,,0.00,0,WeatherCatV1.21B27,2013-08-08 08:06:00,
2013-08-08 02:11:00,68.4,57.0,29.70,NE,50,0.0,0.0,67,0.00,,,0.00,0,WeatherCatV1.21B27,2013-08-08 08:11:00,
2013-08-08 02:16:00,68.4,57.4,29.70,NE,50,0.0,0.0,68,0.00,,,0.00,0,WeatherCatV1.21B27,2013-08-08 08:16:00,
2013-08-08 02:21:00,68.3,56.9,29.70,NE,50,0.0,0.0,67,0.00,,,0.00,0,WeatherCatV1.21B27,2013-08-08 08:21:00,
2013-08-08 02:26:00,68.2,56.8,29.70,NE,50,0.0,0.0,67,0.00,,,0.00,0,WeatherCatV1.21B27,2013-08-08 08:26:00,
2013-08-08 02:31:00,68.1,56.7,29.70,NE,50,0.0,0.0,67,0.00,,,0.00,0,WeatherCatV1.21B27,2013-08-08 08:31:00,
2013-08-08 02:36:00,67.9,56.5,29.70,NE,50,0.0,0.0,67,0.00,,,0.00,0,WeatherCatV1.21B27,2013-08-08 08:36:00,
2013-08-08 02:41:00,67.9,56.5,29.69,NE,50,0.0,0.0,67,0.00,,,0.00,0,WeatherCatV1.21B27,2013-08-08 08:41:00,
2013-08-08 02:46:00,68.1,56.7,29.69,NE,50,0.0,0.0,67,0.00,,,0.00,0,WeatherCatV1.21B27,2013-08-08 08:46:00,
2013-08-08 02:51:00,68.3,56.9,29.69,NE,50,0.0,0.0,67,0.00,,,0.00,0,WeatherCatV1.21B27,2013-08-08 08:51:00,
2013-08-08 02:56:00,68.7,56.9,29.69,NE,50,0.0,0.0,66,0.00,,,0.00,0,WeatherCatV1.21B27,2013-08-08 08:56:00,
2013-08-08 03:01:00,68.8,57.0,29.69,NE,50,0.0,0.0,66,0.00,,,0.00,0,WeatherCatV1.21B27,2013-08-08 09:01:00,
2013-08-08 03:06:00,68.8,57.0,29.69,NE,50,0.0,0.0,66,0.00,,,0.00,0,WeatherCatV1.21B27,2013-08-08 09:06:00,
2013-08-08 03:11:00,68.7,56.9,29.69,NE,50,0.0,0.0,66,0.00,,,0.00,0,WeatherCatV1.21B27,2013-08-08 09:11:00,
2013-08-08 03:16:00,68.6,56.8,29.69,NE,50,0.0,0.0,66,0.00,,,0.00,0,WeatherCatV1.21B27,2013-08-08 09:16:00,
2013-08-08 03:21:00,68.4,57.0,29.69,NE,50,0.0,0.0,67,0.00,,,0.00,0,WeatherCatV1.21B27,2013-08-08 09:21:00,
2013-08-08 03:26:00,68.3,56.9,29.69,NE,50,0.0,0.0,67,0.00,,,0.00,0,WeatherCatV1.21B27,2013-08-08 09:26:00,
2013-08-08 03:31:00,68.3,56.9,29.69,NE,50,0.0,0.0,67,0.00,,,0.00,0,WeatherCatV1.21B27,2013-08-08 09:31:00,
2013-08-08 03:36:00,68.3,56.9,29.68,NE,50,0.0,0.0,67,0.00,,,0.00,0,WeatherCatV1.21B27,2013-08-08 09:36:00,
2013-08-08 03:41:00,68.2,57.2,29.68,NE,50,0.0,0.0,68,0.00,,,0.00,0,WeatherCatV1.21B27,2013-08-08 09:41:00,
2013-08-08 03:46:00,67.9,56.9,29.68,NE,50,0.0,0.0,68,0.00,,,0.00,0,WeatherCatV1.21B27,2013-08-08 09:46:00,
2013-08-08 03:51:00,67.7,57.2,29.68,NE,50,0.0,0.0,69,0.00,,,0.00,0,WeatherCatV1.21B27,2013-08-08 09:51:00,
2013-08-08 03:56:00,67.4,56.9,29.68,NE,50,0.0,0.0,69,0.00,,,0.00,0,WeatherCatV1.21B27,2013-08-08 09:56:00,
2013-08-08 04:01:00,67.2,57.1,29.69,NE,50,0.0,0.0,70,0.00,,,0.00,0,WeatherCatV1.21B27,2013-08-08 10:01:00,
2013-08-08 04:06:00,67.0,56.9,29.69,NE,50,0.0,0.0,70,0.00,,,0.00,0,WeatherCatV1.21B27,2013-08-08 10:06:00,
2013-08-08 04:11:00,66.7,57.0,29.69,NE,50,0.0,0.0,71,0.00,,,0.00,0,WeatherCatV1.21B27,2013-08-08 10:11:00,
2013-08-08 04:16:00,66.5,57.2,29.69,NE,50,0.0,0.0,72,0.00,,,0.00,0,WeatherCatV1.21B27,2013-08-08 10:16:00,
2013-08-08 04:21:00,66.3,57.0,29.69,NE,50,0.0,0.0,72,0.00,,,0.00,0,WeatherCatV1.21B27,2013-08-08 10:21:00,
2013-08-08 04:26:00,66.0,56.7,29.69,NE,50,0.0,0.0,72,0.00,,,0.00,0,WeatherCatV1.21B27,2013-08-08 10:26:00,
2013-08-08 04:31:00,65.7,56.4,29.69,NE,50,0.0,0.0,72,0.00,,,0.00,0,WeatherCatV1.21B27,2013-08-08 10:31:00,
2013-08-08 04:36:00,65.4,56.5,29.70,NE,50,0.0,0.0,73,0.00,,,0.00,0,WeatherCatV1.21B27,2013-08-08 10:36:00,
2013-08-08 04:41:00,65.2,56.3,29.70,NE,50,0.0,0.0,73,0.00,,,0.00,0,WeatherCatV1.21B27,2013-08-08 10:41:00,
2013-08-08 04:46:00,65.1,56.6,29.70,NE,50,0.0,0.0,74,0.00,,,0.00,0,WeatherCatV1.21B27,2013-08-08 10:46:00,
2013-08-08 04:51:00,65.1,56.6,29.70,NE,50,0.0,0.0,74,0.00,,,0.00,0,WeatherCatV1.21B27,2013-08-08 10:51:00,
2013-08-08 04:56:00,65.0,56.5,29.70,NE,50,0.0,0.0,74,0.00,,,0.00,0,WeatherCatV1.21B27,2013-08-08 10:56:00,
2013-08-08 05:01:00,64.8,56.3,29.70,NE,50,0.0,0.0,74,0.00,,,0.00,0,WeatherCatV1.21B27,2013-08-08 11:01:00,
2013-08-08 05:06:00,64.6,56.1,29.70,NE,50,0.0,0.0,74,0.00,,,0.00,0,WeatherCatV1.21B27,2013-08-08 11:06:00,
2013-08-08 05:11:00,64.3,56.2,29.70,NE,50,0.0,0.0,75,0.00,,,0.00,0,WeatherCatV1.21B27,2013-08-08 11:11:00,
2013-08-08 05:16:00,64.1,56.4,29.70,NE,50,0.0,0.0,76,0.00,,,0.00,0,WeatherCatV1.21B27,2013-08-08 11:16:00,
2013-08-08 05:21:00,64.0,56.3,29.70,NE,50,0.0,0.0,76,0.00,,,0.00,0,WeatherCatV1.21B27,2013-08-08 11:21:00,
2013-08-08 05:26:00,63.8,56.1,29.71,NE,50,0.0,0.0,76,0.00,,,0.00,0,WeatherCatV1.21B27,2013-08-08 11:26:00,
2013-08-08 05:31:00,63.7,55.6,29.70,NE,50,0.0,0.0,75,0.00,,,0.00,0,WeatherCatV1.21B27,2013-08-08 11:31:00,
2013-08-08 05:36:00,63.8,55.7,29.71,NE,50,0.0,0.0,75,0.00,,,0.00,0,WeatherCatV1.21B27,2013-08-08 11:36:00,
2013-08-08 05:41:00,64.0,55.5,29.71,NE,50,0.0,0.0,74,0.00,,,0.00,0,WeatherCatV1.21B27,2013-08-08 11:41:00,
2013-08-08 05:46:00,64.0,55.5,29.71,NE,50,0.0,0.0,74,0.00,,,0.00,0,WeatherCatV1.21B27,2013-08-08 11:46:00,
2013-08-08 05:51:00,63.9,55.4,29.72,NE,50,0.0,0.0,74,0.00,,,0.00,0,WeatherCatV1.21B27,2013-08-08 11:51:00,
2013-08-08 05:56:00,63.9,55.8,29.72,NE,50,0.0,0.0,75,0.00,,,0.00,0,WeatherCatV1.21B27,2013-08-08 11:56:00,
2013-08-08 06:01:00,63.9,55.8,29.72,NE,50,0.0,0.0,75,0.00,,,0.00,0,WeatherCatV1.21B27,2013-08-08 12:01:00,
2013-08-08 06:06:00,63.9,56.5,29.72,NE,50,0.0,0.0,77,0.00,,,0.00,0,WeatherCatV1.21B27,2013-08-08 12:06:00,
2013-08-08 06:11:00,63.8,56.1,29.72,NE,50,0.0,0.0,76,0.00,,,0.00,0,WeatherCatV1.21B27,2013-08-08 12:11:00,
2013-08-08 06:16:00,63.8,56.4,29.72,East,88,0.0,0.0,77,0.00,,,0.00,0,WeatherCatV1.21B27,2013-08-08 12:16:00,
2013-08-08 06:21:00,63.5,56.2,29.72,East,88,0.0,0.0,77,0.00,,,0.00,0,WeatherCatV1.21B27,2013-08-08 12:21:00,
2013-08-08 06:26:00,63.4,56.8,29.72,East,88,0.0,0.0,79,0.00,,,0.00,0,WeatherCatV1.21B27,2013-08-08 12:26:00,
2013-08-08 06:31:00,63.3,56.7,29.72,East,88,0.0,0.0,79,0.00,,,0.00,5,WeatherCatV1.21B27,2013-08-08 12:31:00,
2013-08-08 06:36:00,63.3,56.3,29.72,East,88,0.0,0.0,78,0.00,,,0.00,7,WeatherCatV1.21B27,2013-08-08 12:36:00,
2013-08-08 06:41:00,63.2,56.2,29.72,East,88,0.0,0.0,78,0.00,,,0.00,9,WeatherCatV1.21B27,2013-08-08 12:41:00,
2013-08-08 06:46:00,63.1,56.1,29.73,East,88,0.0,0.0,78,0.00,,,0.00,12,WeatherCatV1.21B27,2013-08-08 12:46:00,
2013-08-08 06:51:00,63.1,56.1,29.73,East,88,0.0,0.0,78,0.00,,,0.00,14,WeatherCatV1.21B27,2013-08-08 12:51:00,
2013-08-08 06:56:00,63.1,56.5,29.73,East,88,0.0,0.0,79,0.00,,,0.00,16,WeatherCatV1.21B27,2013-08-08 12:56:00,
2013-08-08 07:01:00,63.4,56.4,29.73,East,88,0.0,0.0,78,0.00,,,0.00,32,WeatherCatV1.21B27,2013-08-08 13:01:00,
2013-08-08 07:06:00,64.4,56.7,29.73,East,88,2.0,4.0,76,0.00,,,0.00,51,WeatherCatV1.21B27,2013-08-08 13:06:00,
2013-08-08 07:11:00,66.1,56.8,29.73,East,87,0.0,0.0,72,0.00,,,0.00,63,WeatherCatV1.21B27,2013-08-08 13:11:00,
2013-08-08 07:16:00,67.1,57.0,29.73,East,87,0.0,2.0,70,0.00,,,0.00,76,WeatherCatV1.21B27,2013-08-08 13:16:00,
2013-08-08 07:21:00,68.1,57.1,29.74,NE,36,1.0,3.0,68,0.00,,,0.00,91,WeatherCatV1.21B27,2013-08-08 13:21:00,
2013-08-08 07:26:00,68.9,57.5,29.74,NE,36,0.0,0.0,67,0.00,,,0.00,109,WeatherCatV1.21B27,2013-08-08 13:26:00,
2013-08-08 07:31:00,69.5,58.0,29.74,NE,36,0.0,0.0,67,0.00,,,0.00,128,WeatherCatV1.21B27,2013-08-08 13:31:00,
2013-08-08 07:36:00,70.1,58.6,29.74,NNE,32,2.0,3.0,67,0.00,,,0.00,148,WeatherCatV1.21B27,2013-08-08 13:36:00,
2013-08-08 07:41:00,70.6,58.7,29.74,NNE,31,2.0,3.0,66,0.00,,,0.00,165,WeatherCatV1.21B27,2013-08-08 13:41:00,
2013-08-08 07:46:00,71.1,58.7,29.74,NNE,31,0.0,0.0,65,0.00,,,0.00,181,WeatherCatV1.21B27,2013-08-08 13:46:00,
2013-08-08 07:51:00,71.7,58.4,29.74,NNE,31,0.0,0.0,63,0.00,,,0.00,195,WeatherCatV1.21B27,2013-08-08 13:51:00,
2013-08-08 07:56:00,72.2,58.4,29.74,NNE,31,0.0,2.0,62,0.00,,,0.00,207,WeatherCatV1.21B27,2013-08-08 13:56:00,
2013-08-08 08:01:00,72.9,59.1,29.74,NE,45,0.0,0.0,62,0.00,,,0.00,223,WeatherCatV1.21B27,2013-08-08 14:01:00,
2013-08-08 08:06:00,73.7,57.5,29.74,NNW,333,0.0,5.0,57,0.00,,,0.00,241,WeatherCatV1.21B27,2013-08-08 14:06:00,
2013-08-08 08:11:00,74.4,56.7,29.75,North,10,2.0,5.0,54,0.00,,,0.00,258,WeatherCatV1.21B27,2013-08-08 14:11:00,
2013-08-08 08:16:00,75.0,57.7,29.75,North,11,2.0,3.0,55,0.00,,,0.00,274,WeatherCatV1.21B27,2013-08-08 14:16:00,
2013-08-08 08:21:00,75.5,56.6,29.75,North,355,1.0,6.0,52,0.00,,,0.00,290,WeatherCatV1.21B27,2013-08-08 14:21:00,
2013-08-08 08:26:00,75.8,56.4,29.75,North,0,0.0,6.0,51,0.00,,,0.00,304,WeatherCatV1.21B27,2013-08-08 14:26:00,
2013-08-08 08:31:00,76.2,56.2,29.75,NNE,13,3.0,4.0,50,0.00,,,0.00,320,WeatherCatV1.21B27,2013-08-08 14:31:00,
2013-08-08 08:36:00,76.5,55.9,29.75,NNW,340,0.0,3.0,49,0.00,,,0.00,336,WeatherCatV1.21B27,2013-08-08 14:36:00,
2013-08-08 08:41:00,77.2,56.5,29.76,NNE,32,0.0,4.0,49,0.00,,,0.00,350,WeatherCatV1.21B27,2013-08-08 14:41:00,
2013-08-08 08:46:00,78.0,56.7,29.76,NNE,29,0.0,4.0,48,0.00,,,0.00,371,WeatherCatV1.21B27,2013-08-08 14:46:00,
2013-08-08 08:51:00,78.4,55.9,29.76,North,355,4.0,4.0,46,0.00,,,0.00,385,WeatherCatV1.21B27,2013-08-08 14:51:00,
2013-08-08 08:56:00,78.6,55.5,29.76,ENE,63,1.0,7.0,45,0.00,,,0.00,404,WeatherCatV1.21B27,2013-08-08 14:56:00,
2013-08-08 09:01:00,78.9,55.7,29.76,East,87,0.0,3.0,45,0.00,,,0.00,417,WeatherCatV1.21B27,2013-08-08 15:01:00,
2013-08-08 09:06:00,79.2,54.8,29.76,NE,49,4.0,6.0,43,0.00,,,0.00,432,WeatherCatV1.21B27,2013-08-08 15:06:00,
2013-08-08 09:11:00,79.3,54.8,29.76,NNW,341,3.0,7.0,43,0.00,,,0.00,446,WeatherCatV1.21B27,2013-08-08 15:11:00,
2013-08-08 09:16:00,79.6,55.1,29.76,NNW,338,0.0,6.0,43,0.00,,,0.00,462,WeatherCatV1.21B27,2013-08-08 15:16:00,
2013-08-08 09:21:00,80.0,54.8,29.76,North,355,2.0,7.0,42,0.00,,,0.00,478,WeatherCatV1.21B27,2013-08-08 15:21:00,
2013-08-08 09:26:00,80.6,55.4,29.76,NE,44,3.0,5.0,42,0.00,,,0.00,492,WeatherCatV1.21B27,2013-08-08 15:26:00,
2013-08-08 09:31:00,81.4,54.7,29.76,North,0,2.0,5.0,40,0.00,,,0.00,510,WeatherCatV1.21B27,2013-08-08 15:31:00,
2013-08-08 09:36:00,81.7,55.0,29.76,North,0,3.0,8.0,40,0.00,,,0.00,515,WeatherCatV1.21B27,2013-08-08 15:36:00,
2013-08-08 09:41:00,81.8,54.4,29.76,NNW,333,5.0,9.0,39,0.00,,,0.00,534,WeatherCatV1.21B27,2013-08-08 15:41:00,
2013-08-08 09:46:00,82.2,54.8,29.76,NW,320,2.0,7.0,39,0.00,,,0.00,548,WeatherCatV1.21B27,2013-08-08 15:46:00,
2013-08-08 09:51:00,82.4,54.2,29.76,East,87,0.0,4.0,38,0.00,,,0.00,566,WeatherCatV1.21B27,2013-08-08 15:51:00,
2013-08-08 09:56:00,83.1,54.8,29.76,NNW,331,10.0,10.0,38,0.00,,,0.00,577,WeatherCatV1.21B27,2013-08-08 15:56:00,
2013-08-08 10:01:00,83.7,54.6,29.76,NNW,338,3.0,8.0,37,0.00,,,0.00,594,WeatherCatV1.21B27,2013-08-08 16:01:00,
2013-08-08 10:06:00,84.1,55.0,29.76,NNW,346,5.0,6.0,37,0.00,,,0.00,605,WeatherCatV1.21B27,2013-08-08 16:06:00,
2013-08-08 10:11:00,84.0,54.9,29.76,North,10,1.0,5.0,37,0.00,,,0.00,619,WeatherCatV1.21B27,2013-08-08 16:11:00,
2013-08-08 10:16:00,84.1,55.0,29.76,NW,309,5.0,6.0,37,0.00,,,0.00,629,WeatherCatV1.21B27,2013-08-08 16:16:00,
2013-08-08 10:21:00,84.3,55.2,29.76,North,355,0.0,5.0,37,0.00,,,0.00,643,WeatherCatV1.21B27,2013-08-08 16:21:00,
2013-08-08 10:26:00,84.5,55.3,29.76,NW,308,4.0,4.0,37,0.00,,,0.00,659,WeatherCatV1.21B27,2013-08-08 16:26:00,
2013-08-08 10:31:00,85.2,56.0,29.76,NNW,331,2.0,5.0,37,0.00,,,0.00,670,WeatherCatV1.21B27,2013-08-08 16:31:00,
2013-08-08 10:36:00,85.7,55.6,29.76,NW,322,0.0,5.0,36,0.00,,,0.00,680,WeatherCatV1.21B27,2013-08-08 16:36:00,
2013-08-08 10:41:00,86.5,55.6,29.76,NNW,341,3.0,5.0,35,0.00,,,0.00,696,WeatherCatV1.21B27,2013-08-08 16:41:00,
2013-08-08 10:46:00,86.5,54.8,29.75,NW,313,1.0,6.0,34,0.00,,,0.00,700,WeatherCatV1.21B27,2013-08-08 16:46:00,
2013-08-08 10:51:00,86.3,55.4,29.75,NNW,329,3.0,7.0,35,0.00,,,0.00,712,WeatherCatV1.21B27,2013-08-08 16:51:00,
2013-08-08 10:56:00,86.8,54.2,29.75,NNW,348,6.0,7.0,33,0.00,,,0.00,724,WeatherCatV1.21B27,2013-08-08 16:56:00,
2013-08-08 11:01:00,87.2,55.4,29.75,WNW,300,5.0,8.0,34,0.00,,,0.00,731,WeatherCatV1.21B27,2013-08-08 17:01:00,
2013-08-08 11:06:00,87.7,53.3,29.75,NW,306,4.0,14.0,31,0.00,,,0.00,744,WeatherCatV1.21B27,2013-08-08 17:06:00,
2013-08-08 11:11:00,87.7,53.3,29.75,NNW,329,4.0,8.0,31,0.00,,,0.00,759,WeatherCatV1.21B27,2013-08-08 17:11:00,
2013-08-08 11:16:00,88.1,52.7,29.75,NNW,338,1.0,9.0,30,0.00,,,0.00,766,WeatherCatV1.21B27,2013-08-08 17:16:00,
2013-08-08 11:21:00,88.2,52.8,29.75,WNW,299,6.0,9.0,30,0.00,,,0.00,773,WeatherCatV1.21B27,2013-08-08 17:21:00,
2013-08-08 11:26:00,88.4,52.1,29.75,NNW,335,7.0,10.0,29,0.00,,,0.00,784,WeatherCatV1.21B27,2013-08-08 17:26:00,
2013-08-08 11:31:00,88.3,52.9,29.75,NW,325,8.0,11.0,30,0.00,,,0.00,798,WeatherCatV1.21B27,2013-08-08 17:31:00,
2013-08-08 11:36:00,89.1,51.7,29.74,NW,319,4.0,8.0,28,0.00,,,0.00,807,WeatherCatV1.21B27,2013-08-08 17:36:00,
2013-08-08 11:41:00,89.3,51.9,29.75,North,355,5.0,7.0,28,0.00,,,0.00,803,WeatherCatV1.21B27,2013-08-08 17:41:00,
2013-08-08 11:46:00,89.4,51.0,29.74,NW,313,7.0,9.0,27,0.00,,,0.00,816,WeatherCatV1.21B27,2013-08-08 17:46:00,
2013-08-08 11:51:00,89.7,50.2,29.74,NNW,333,5.0,12.0,26,0.00,,,0.00,823,WeatherCatV1.21B27,2013-08-08 17:51:00,
2013-08-08 11:56:00,89.6,48.0,29.74,NNW,340,3.0,6.0,24,0.00,,,0.00,835,WeatherCatV1.21B27,2013-08-08 17:56:00,
2013-08-08 12:01:00,89.6,51.2,29.74,NNE,15,4.0,12.0,27,0.00,,,0.00,837,WeatherCatV1.21B27,2013-08-08 18:01:00,
2013-08-08 12:06:00,89.8,50.3,29.73,NW,321,10.0,10.0,26,0.00,,,0.00,844,WeatherCatV1.21B27,2013-08-08 18:06:00,
2013-08-08 12:11:00,90.0,50.5,29.73,NE,53,2.0,7.0,26,0.00,,,0.00,849,WeatherCatV1.21B27,2013-08-08 18:11:00,
2013-08-08 12:16:00,90.6,51.0,29.73,NNE,13,1.0,8.0,26,0.00,,,0.00,854,WeatherCatV1.21B27,2013-08-08 18:16:00,
2013-08-08 12:21:00,91.5,48.4,29.73,NNW,329,4.0,7.0,23,0.00,,,0.00,858,WeatherCatV1.21B27,2013-08-08 18:21:00,
2013-08-08 12:26:00,91.7,48.6,29.73,NNW,342,6.0,6.0,23,0.00,,,0.00,865,WeatherCatV1.21B27,2013-08-08 18:26:00,
2013-08-08 12:31:00,91.8,49.8,29.73,North,0,3.0,7.0,24,0.00,,,0.00,868,WeatherCatV1.21B27,2013-08-08 18:31:00,
2013-08-08 12:36:00,91.8,48.7,29.73,NW,325,6.0,12.0,23,0.00,,,0.00,875,WeatherCatV1.21B27,2013-08-08 18:36:00,
2013-08-08 12:41:00,91.5,49.6,29.72,WNW,284,4.0,12.0,24,0.00,,,0.00,879,WeatherCatV1.21B27,2013-08-08 18:41:00,
2013-08-08 12:46:00,91.5,50.7,29.72,NW,311,4.0,7.0,25,0.00,,,0.00,877,WeatherCatV1.21B27,2013-08-08 18:46:00,
2013-08-08 12:51:00,92.3,49.1,29.72,ENE,57,1.0,4.0,23,0.00,,,0.00,884,WeatherCatV1.21B27,2013-08-08 18:51:00,
2013-08-08 12:56:00,92.9,49.6,29.72,NW,304,7.0,10.0,23,0.00,,,0.00,888,WeatherCatV1.21B27,2013-08-08 18:56:00,
2013-08-08 13:01:00,92.6,49.3,29.72,NNW,336,7.0,11.0,23,0.00,,,0.00,888,WeatherCatV1.21B27,2013-08-08 19:01:00,
2013-08-08 13:06:00,92.6,48.2,29.72,North,349,5.0,11.0,22,0.00,,,0.00,889,WeatherCatV1.21B27,2013-08-08 19:06:00,
2013-08-08 13:11:00,92.6,49.3,29.71,NNW,337,4.0,9.0,23,0.00,,,0.00,891,WeatherCatV1.21B27,2013-08-08 19:11:00,
2013-08-08 13:16:00,92.7,47.0,29.71,NW,324,7.0,14.0,21,0.00,,,0.00,891,WeatherCatV1.21B27,2013-08-08 19:16:00,
2013-08-08 13:21:00,92.6,46.9,29.71,NW,313,4.0,6.0,21,0.00,,,0.00,891,WeatherCatV1.21B27,2013-08-08 19:21:00,
2013-08-08 13:26:00,92.9,47.2,29.71,NW,315,11.0,15.0,21,0.00,,,0.00,898,WeatherCatV1.21B27,2013-08-08 19:26:00,
2013-08-08 13:31:00,93.1,47.3,29.71,NW,310,8.0,9.0,21,0.00,,,0.00,900,WeatherCatV1.21B27,2013-08-08 19:31:00,
2013-08-08 13:36:00,94.0,48.1,29.70,NW,322,6.0,11.0,21,0.00,,,0.00,896,WeatherCatV1.21B27,2013-08-08 19:36:00,
2013-08-08 13:41:00,94.4,47.1,29.71,North,5,1.0,11.0,20,0.00,,,0.00,926,WeatherCatV1.21B27,2013-08-08 19:41:00,
2013-08-08 13:46:00,94.6,47.3,29.70,NNW,334,2.0,11.0,20,0.00,,,0.00,925,WeatherCatV1.21B27,2013-08-08 19:46:00,
2013-08-08 13:51:00,94.6,47.3,29.70,NW,323,12.0,12.0,20,0.00,,,0.00,937,WeatherCatV1.21B27,2013-08-08 19:51:00,
2013-08-08 13:56:00,94.1,46.8,29.70,NNW,334,7.0,11.0,20,0.00,,,0.00,907,WeatherCatV1.21B27,2013-08-08 19:56:00,
2013-08-08 14:01:00,94.5,47.2,29.70,NW,323,2.0,6.0,20,0.00,,,0.00,907,WeatherCatV1.21B27,2013-08-08 20:01:00,
2013-08-08 14:06:00,94.5,47.2,29.70,NW,317,8.0,11.0,20,0.00,,,0.00,904,WeatherCatV1.21B27,2013-08-08 20:06:00,
2013-08-08 14:11:00,94.3,47.0,29.70,WNW,296,0.0,2.0,20,0.00,,,0.00,902,WeatherCatV1.21B27,2013-08-08 20:11:00,
2013-08-08 14:16:00,94.8,47.4,29.69,NNW,329,10.0,11.0,20,0.00,,,0.00,889,WeatherCatV1.21B27,2013-08-08 20:16:00,
2013-08-08 14:21:00,95.1,47.7,29.69,NNW,331,4.0,11.0,20,0.00,,,0.00,891,WeatherCatV1.21B27,2013-08-08 20:21:00,
2013-08-08 14:26:00,94.6,47.3,29.69,West,275,1.0,5.0,20,0.00,,,0.00,889,WeatherCatV1.21B27,2013-08-08 20:26:00,
2013-08-08 14:31:00,94.5,47.2,29.69,NNW,331,5.0,13.0,20,0.00,,,0.00,155,WeatherCatV1.21B27,2013-08-08 20:31:00,
2013-08-08 14:36:00,94.9,46.1,29.68,NW,316,2.0,5.0,19,0.00,,,0.00,881,WeatherCatV1.21B27,2013-08-08 20:36:00,
2013-08-08 14:41:00,96.0,48.4,29.69,NNW,329,4.0,12.0,20,0.00,,,0.00,860,WeatherCatV1.21B27,2013-08-08 20:41:00,
2013-08-08 14:46:00,96.3,47.3,29.68,NW,325,3.0,10.0,19,0.00,,,0.00,796,WeatherCatV1.21B27,2013-08-08 20:46:00,
2013-08-08 14:51:00,95.2,46.4,29.68,NW,304,7.0,12.0,19,0.00,,,0.00,121,WeatherCatV1.21B27,2013-08-08 20:51:00,
2013-08-08 14:56:00,94.4,47.1,29.68,NE,53,4.0,4.0,20,0.00,,,0.00,854,WeatherCatV1.21B27,2013-08-08 20:56:00,
2013-08-08 15:01:00,95.0,47.6,29.68,NNW,336,3.0,6.0,20,0.00,,,0.00,865,WeatherCatV1.21B27,2013-08-08 21:01:00,
2013-08-08 15:06:00,94.8,46.1,29.68,NE,42,1.0,1.0,19,0.00,,,0.00,141,WeatherCatV1.21B27,2013-08-08 21:06:00,
2013-08-08 15:11:00,94.2,46.9,29.67,SW,231,7.0,10.0,20,0.00,,,0.00,167,WeatherCatV1.21B27,2013-08-08 21:11:00,
2013-08-08 15:16:00,94.2,46.9,29.67,West,271,3.0,7.0,20,0.00,,,0.00,833,WeatherCatV1.21B27,2013-08-08 21:16:00,
2013-08-08 15:21:00,95.0,47.6,29.67,NE,34,2.0,8.0,20,0.00,,,0.00,853,WeatherCatV1.21B27,2013-08-08 21:21:00,
2013-08-08 15:26:00,94.9,46.1,29.67,North,355,0.0,4.0,19,0.00,,,0.00,179,WeatherCatV1.21B27,2013-08-08 21:26:00,
2013-08-08 15:31:00,94.3,47.0,29.67,NNW,345,6.0,6.0,20,0.00,,,0.00,190,WeatherCatV1.21B27,2013-08-08 21:31:00,
2013-08-08 15:36:00,94.2,46.9,29.66,NNE,31,2.0,7.0,20,0.00,,,0.00,213,WeatherCatV1.21B27,2013-08-08 21:36:00,
2013-08-08 15:42:00,95.0,47.6,29.66,NNW,332,9.0,11.0,20,0.00,,,0.00,793,WeatherCatV1.21B27,2013-08-08 21:42:00,
2013-08-08 15:47:00,94.6,47.3,29.66,NW,318,6.0,8.0,20,0.00,,,0.00,162,WeatherCatV1.21B27,2013-08-08 21:47:00,
2013-08-08 15:52:00,93.5,46.4,29.66,WNW,300,1.0,7.0,20,0.00,,,0.00,594,WeatherCatV1.21B27,2013-08-08 21:52:00,
2013-08-08 15:57:00,94.4,47.1,29.66,SW,236,5.0,7.0,20,0.00,,,0.00,842,WeatherCatV1.21B27,2013-08-08 21:57:00,
2013-08-08 16:02:00,94.3,47.0,29.66,SW,236,0.0,4.0,20,0.00,,,0.00,149,WeatherCatV1.21B27,2013-08-08 22:02:00,
2013-08-08 16:07:00,93.7,46.5,29.65,NW,309,4.0,5.0,20,0.00,,,0.00,156,WeatherCatV1.21B27,2013-08-08 22:07:00,
2013-08-08 16:12:00,93.4,47.6,29.65,NW,313,7.0,9.0,21,0.00,,,0.00,761,WeatherCatV1.21B27,2013-08-08 22:12:00,
2013-08-08 16:17:00,94.2,48.2,29.65,WNW,285,0.0,4.0,21,0.00,,,0.00,719,WeatherCatV1.21B27,2013-08-08 22:17:00,
2013-08-08 16:22:00,95.0,47.6,29.65,WNW,292,4.0,5.0,20,0.00,,,0.00,675,WeatherCatV1.21B27,2013-08-08 22:22:00,
2013-08-08 16:27:00,95.7,48.2,29.65,WNW,297,0.0,2.0,20,0.00,,,0.00,659,WeatherCatV1.21B27,2013-08-08 22:27:00,
2013-08-08 16:32:00,96.6,47.5,29.65,NNE,23,1.0,2.0,19,0.00,,,0.00,638,WeatherCatV1.21B27,2013-08-08 22:32:00,
2013-08-08 16:37:00,96.8,47.7,29.65,WSW,239,4.0,6.0,19,0.00,,,0.00,619,WeatherCatV1.21B27,2013-08-08 22:37:00,
2013-08-08 16:42:00,96.5,46.0,29.65,NNW,336,5.0,10.0,18,0.00,,,0.00,598,WeatherCatV1.21B27,2013-08-08 22:42:00,
2013-08-08 16:47:00,96.8,47.7,29.64,NNW,328,2.0,6.0,19,0.00,,,0.00,571,WeatherCatV1.21B27,2013-08-08 22:47:00,
2013-08-08 16:52:00,96.8,46.2,29.64,NW,312,4.0,5.0,18,0.00,,,0.00,561,WeatherCatV1.21B27,2013-08-08 22:52:00,
2013-08-08 16:57:00,96.8,46.2,29.64,NW,308,0.0,1.0,18,0.00,,,0.00,434,WeatherCatV1.21B27,2013-08-08 22:57:00,
2013-08-08 17:02:00,96.2,45.8,29.64,SW,232,5.0,5.0,18,0.00,,,0.00,111,WeatherCatV1.21B27,2013-08-08 23:02:00,
2013-08-08 17:07:00,95.3,46.5,29.64,West,270,2.0,2.0,19,0.00,,,0.00,151,WeatherCatV1.21B27,2013-08-08 23:07:00,
2013-08-08 17:12:00,95.1,46.3,29.64,WNW,294,2.0,7.0,19,0.00,,,0.00,540,WeatherCatV1.21B27,2013-08-08 23:12:00,
2013-08-08 17:17:00,95.6,46.7,29.64,SSW,196,2.0,4.0,19,0.00,,,0.00,513,WeatherCatV1.21B27,2013-08-08 23:17:00,
2013-08-08 17:22:00,95.8,46.9,29.63,SSW,194,1.0,3.0,19,0.00,,,0.00,478,WeatherCatV1.21B27,2013-08-08 23:22:00,
2013-08-08 17:27:00,95.9,47.0,29.63,SW,219,0.0,6.0,19,0.00,,,0.00,475,WeatherCatV1.21B27,2013-08-08 23:27:00,
2013-08-08 17:32:00,96.1,47.1,29.63,SW,229,3.0,9.0,19,0.00,,,0.00,454,WeatherCatV1.21B27,2013-08-08 23:32:00,
2013-08-08 17:37:00,95.9,47.0,29.63,WNW,284,4.0,9.0,19,0.00,,,0.00,91,WeatherCatV1.21B27,2013-08-08 23:37:00,
2013-08-08 17:42:00,95.1,44.9,29.62,West,271,3.0,6.0,18,0.00,,,0.00,385,WeatherCatV1.21B27,2013-08-08 23:42:00,
2013-08-08 17:47:00,95.3,46.5,29.62,WNW,295,4.0,6.0,19,0.00,,,0.00,385,WeatherCatV1.21B27,2013-08-08 23:47:00,
2013-08-08 17:52:00,96.0,47.0,29.62,NNW,346,0.0,8.0,19,0.00,,,0.00,366,WeatherCatV1.21B27,2013-08-08 23:52:00,
2013-08-08 17:57:00,96.3,45.8,29.62,WNW,290,1.0,4.0,18,0.00,,,0.00,348,WeatherCatV1.21B27,2013-08-08 23:57:00,
2013-08-08 18:02:00,96.1,45.7,29.62,West,271,1.0,8.0,18,0.00,,,0.00,334,WeatherCatV1.21B27,2013-08-09 00:02:00,
2013-08-08 18:07:00,96.2,45.8,29.62,WSW,254,5.0,7.0,18,0.00,,,0.00,309,WeatherCatV1.21B27,2013-08-09 00:07:00,
2013-08-08 18:12:00,96.0,45.6,29.61,West,261,3.0,8.0,18,0.00,,,0.00,292,WeatherCatV1.21B27,2013-08-09 00:12:00,
2013-08-08 18:17:00,95.9,45.5,29.61,West,266,3.0,7.0,18,0.00,,,0.00,274,WeatherCatV1.21B27,2013-08-09 00:17:00,
2013-08-08 18:22:00,95.6,45.3,29.61,WNW,292,4.0,8.0,18,0.00,,,0.00,250,WeatherCatV1.21B27,2013-08-09 00:22:00,
2013-08-08 18:27:00,95.0,46.2,29.61,West,269,7.0,7.0,19,0.00,,,0.00,239,WeatherCatV1.21B27,2013-08-09 00:27:00,
2013-08-08 18:32:00,95.0,46.2,29.61,SW,217,4.0,6.0,19,0.00,,,0.00,221,WeatherCatV1.21B27,2013-08-09 00:32:00,
2013-08-08 18:37:00,94.6,45.9,29.61,SW,216,4.0,5.0,19,0.00,,,0.00,202,WeatherCatV1.21B27,2013-08-09 00:37:00,
2013-08-08 18:42:00,94.4,45.7,29.61,WNW,292,3.0,4.0,19,0.00,,,0.00,185,WeatherCatV1.21B27,2013-08-09 00:42:00,
2013-08-08 18:47:00,94.4,45.7,29.61,West,261,4.0,6.0,19,0.00,,,0.00,162,WeatherCatV1.21B27,2013-08-09 00:47:00,
2013-08-08 18:52:00,94.1,45.5,29.61,SW,230,3.0,6.0,19,0.00,,,0.00,144,WeatherCatV1.21B27,2013-08-09 00:52:00,
2013-08-08 18:57:00,93.8,45.2,29.61,SW,222,2.0,6.0,19,0.00,,,0.00,130,WeatherCatV1.21B27,2013-08-09 00:57:00,
2013-08-08 19:02:00,93.7,45.2,29.61,WSW,252,0.0,1.0,19,0.00,,,0.00,111,WeatherCatV1.21B27,2013-08-09 01:02:00,
2013-08-08 19:07:00,93.6,45.1,29.61,WSW,241,3.0,4.0,19,0.00,,,0.00,93,WeatherCatV1.21B27,2013-08-09 01:07:00,
2013-08-08 19:12:00,93.3,44.8,29.61,West,260,0.0,9.0,19,0.00,,,0.00,76,WeatherCatV1.21B27,2013-08-09 01:12:00,
2013-08-08 19:17:00,93.2,44.8,29.61,West,281,3.0,9.0,19,0.00,,,0.00,62,WeatherCatV1.21B27,2013-08-09 01:17:00,
2013-08-08 19:22:00,93.1,44.7,29.61,NW,313,3.0,6.0,19,0.00,,,0.00,47,WeatherCatV1.21B27,2013-08-09 01:22:00,
2013-08-08 19:27:00,92.8,44.4,29.61,NW,313,1.0,7.0,19,0.00,,,0.00,37,WeatherCatV1.21B27,2013-08-09 01:27:00,
2013-08-08 19:32:00,92.4,44.1,29.61,NW,313,0.0,6.0,19,0.00,,,0.00,28,WeatherCatV1.21B27,2013-08-09 01:32:00,
2013-08-08 19:37:00,92.1,45.2,29.61,NW,313,0.0,2.0,20,0.00,,,0.00,19,WeatherCatV1.21B27,2013-08-09 01:37:00,
2013-08-08 19:42:00,91.7,44.9,29.61,NW,313,3.0,4.0,20,0.00,,,0.00,14,WeatherCatV1.21B27,2013-08-09 01:42:00,
2013-08-08 19:47:00,91.1,44.4,29.61,NW,313,3.0,4.0,20,0.00,,,0.00,11,WeatherCatV1.21B27,2013-08-09 01:47:00,
2013-08-08 19:52:00,90.3,45.0,29.61,NW,312,1.0,5.0,21,0.00,,,0.00,7,WeatherCatV1.21B27,2013-08-09 01:52:00,
2013-08-08 19:57:00,89.5,44.4,29.61,WNW,288,4.0,5.0,21,0.00,,,0.00,0,WeatherCatV1.21B27,2013-08-09 01:57:00,
2013-08-08 20:02:00,89.0,45.2,29.62,WNW,285,3.0,6.0,22,0.00,,,0.00,0,WeatherCatV1.21B27,2013-08-09 02:02:00,
2013-08-08 20:07:00,88.5,44.8,29.62,West,268,7.0,8.0,22,0.00,,,0.00,0,WeatherCatV1.21B27,2013-08-09 02:07:00,
2013-08-08 20:12:00,88.2,44.5,29.62,WNW,288,2.0,6.0,22,0.00,,,0.00,0,WeatherCatV1.21B27,2013-08-09 02:12:00,
2013-08-08 20:17:00,87.8,45.3,29.62,WNW,298,1.0,5.0,23,0.00,,,0.00,0,WeatherCatV1.21B27,2013-08-09 02:17:00,
2013-08-08 20:22:00,87.5,45.1,29.62,WNW,293,3.0,4.0,23,0.00,,,0.00,0,WeatherCatV1.21B27,2013-08-09 02:22:00,
2013-08-08 20:27:00,87.0,44.7,29.62,WNW,287,1.0,4.0,23,0.00,,,0.00,0,WeatherCatV1.21B27,2013-08-09 02:27:00,
2013-08-08 20:32:00,86.6,45.5,29.62,WNW,287,0.0,1.0,24,0.00,,,0.00,0,WeatherCatV1.21B27,2013-08-09 02:32:00,
2013-08-08 20:37:00,86.2,45.1,29.62,WNW,287,0.0,0.0,24,0.00,,,0.00,0,WeatherCatV1.21B27,2013-08-09 02:37:00,
2013-08-08 20:42:00,85.7,44.7,29.63,WNW,287,0.0,0.0,24,0.00,,,0.00,0,WeatherCatV1.21B27,2013-08-09 02:42:00,
2013-08-08 20:47:00,85.4,44.5,29.63,WNW,294,1.0,2.0,24,0.00,,,0.00,0,WeatherCatV1.21B27,2013-08-09 02:47:00,
2013-08-08 20:52:00,85.0,45.2,29.63,WNW,294,0.0,2.0,25,0.00,,,0.00,0,WeatherCatV1.21B27,2013-08-09 02:52:00,
2013-08-08 20:57:00,84.6,44.9,29.63,WNW,296,0.0,1.0,25,0.00,,,0.00,0,WeatherCatV1.21B27,2013-08-09 02:57:00,
2013-08-08 21:02:00,84.3,44.6,29.63,WNW,296,0.0,1.0,25,0.00,,,0.00,0,WeatherCatV1.21B27,2013-08-09 03:02:00,
2013-08-08 21:07:00,84.0,45.4,29.64,WNW,296,0.0,0.0,26,0.00,,,0.00,0,WeatherCatV1.21B27,2013-08-09 03:07:00,
2013-08-08 21:12:00,83.6,45.1,29.64,WNW,296,0.0,0.0,26,0.00,,,0.00,0,WeatherCatV1.21B27,2013-08-09 03:12:00,
2013-08-08 21:17:00,83.3,44.8,29.64,WNW,296,0.0,0.0,26,0.00,,,0.00,0,WeatherCatV1.21B27,2013-08-09 03:17:00,
2013-08-08 21:22:00,82.9,45.5,29.64,WNW,296,0.0,0.0,27,0.00,,,0.00,0,WeatherCatV1.21B27,2013-08-09 03:22:00,
2013-08-08 21:27:00,82.3,45.0,29.65,WNW,296,0.0,0.0,27,0.00,,,0.00,0,WeatherCatV1.21B27,2013-08-09 03:27:00,
2013-08-08 21:32:00,81.8,45.5,29.65,WNW,296,0.0,0.0,28,0.00,,,0.00,0,WeatherCatV1.21B27,2013-08-09 03:32:00,
2013-08-08 21:37:00,81.3,45.0,29.65,WNW,296,0.0,0.0,28,0.00,,,0.00,0,WeatherCatV1.21B27,2013-08-09 03:37:00,
2013-08-08 21:42:00,80.7,44.5,29.65,WNW,296,0.0,0.0,28,0.00,,,0.00,0,WeatherCatV1.21B27,2013-08-09 03:42:00,
2013-08-08 21:47:00,80.4,44.3,29.66,WNW,296,0.0,0.0,28,0.00,,,0.00,0,WeatherCatV1.21B27,2013-08-09 03:47:00,
2013-08-08 21:52:00,80.4,44.3,29.66,NW,307,1.0,2.0,28,0.00,,,0.00,0,WeatherCatV1.21B27,2013-08-09 03:52:00,
2013-08-08 21:57:00,80.4,44.3,29.66,NW,307,0.0,0.0,28,0.00,,,0.00,0,WeatherCatV1.21B27,2013-08-09 03:57:00,
2013-08-08 22:01:00,80.1,44.0,29.66,NW,307,0.0,0.0,28,0.00,,,0.00,0,WeatherCatV1.21B27,2013-08-09 04:01:00,
2013-08-08 22:06:00,79.7,43.7,29.66,NW,307,0.0,0.0,28,0.00,,,0.00,0,WeatherCatV1.21B27,2013-08-09 04:06:00,
2013-08-08 22:11:00,79.2,44.2,29.67,NW,307,0.0,0.0,29,0.00,,,0.00,0,WeatherCatV1.21B27,2013-08-09 04:11:00,
2013-08-08 22:16:00,79.1,43.2,29.67,NW,307,0.0,0.0,28,0.00,,,0.00,0,WeatherCatV1.21B27,2013-08-09 04:16:00,
2013-08-08 22:21:00,79.0,43.1,29.67,NW,311,0.0,1.0,28,0.00,,,0.00,0,WeatherCatV1.21B27,2013-08-09 04:21:00,
2013-08-08 22:26:00,79.2,43.3,29.67,NW,317,0.0,2.0,28,0.00,,,0.00,0,WeatherCatV1.21B27,2013-08-09 04:26:00,
2013-08-08 22:31:00,79.0,43.1,29.68,NW,317,0.0,0.0,28,0.00,,,0.00,0,WeatherCatV1.21B27,2013-08-09 04:31:00,
2013-08-08 22:36:00,78.8,42.9,29.68,NW,317,0.0,0.0,28,0.00,,,0.00,0,WeatherCatV1.21B27,2013-08-09 04:36:00,
2013-08-08 22:41:00,78.6,42.8,29.68,NW,317,1.0,1.0,28,0.00,,,0.00,0,WeatherCatV1.21B27,2013-08-09 04:41:00,
2013-08-08 22:46:00,78.7,42.8,29.68,NW,317,0.0,0.0,28,0.00,,,0.00,0,WeatherCatV1.21B27,2013-08-09 04:46:00,
2013-08-08 22:51:00,78.7,42.8,29.68,NW,317,0.0,0.0,28,0.00,,,0.00,0,WeatherCatV1.21B27,2013-08-09 04:51:00,
2013-08-08 22:56:00,78.2,44.2,29.68,NW,317,0.0,0.0,30,0.00,,,0.00,0,WeatherCatV1.21B27,2013-08-09 04:56:00,
2013-08-08 23:01:00,77.8,43.0,29.69,NW,317,0.0,0.0,29,0.00,,,0.00,0,WeatherCatV1.21B27,2013-08-09 05:01:00,
2013-08-08 23:06:00,77.5,43.6,29.69,NW,317,0.0,0.0,30,0.00,,,0.00,0,WeatherCatV1.21B27,2013-08-09 05:06:00,
2013-08-08 23:11:00,77.4,43.5,29.69,NW,319,0.0,0.0,30,0.00,,,0.00,0,WeatherCatV1.21B27,2013-08-09 05:11:00,
2013-08-08 23:16:00,77.3,43.4,29.69,North,355,2.0,2.0,30,0.00,,,0.00,0,WeatherCatV1.21B27,2013-08-09 05:16:00,
2013-08-08 23:21:00,77.5,42.7,29.69,NNE,19,1.0,3.0,29,0.00,,,0.00,0,WeatherCatV1.21B27,2013-08-09 05:21:00,
2013-08-08 23:26:00,77.4,43.5,29.69,NNE,19,0.0,0.0,30,0.00,,,0.00,0,WeatherCatV1.21B27,2013-08-09 05:26:00,
2013-08-08 23:31:00,77.3,43.4,29.69,NNE,19,0.0,0.0,30,0.00,,,0.00,0,WeatherCatV1.21B27,2013-08-09 05:31:00,
2013-08-08 23:36:00,77.1,42.4,29.69,NNE,20,0.0,1.0,29,0.00,,,0.00,0,WeatherCatV1.21B27,2013-08-09 05:36:00,
2013-08-08 23:41:00,77.3,42.5,29.69,NNE,20,0.0,2.0,29,0.00,,,0.00,0,WeatherCatV1.21B27,2013-08-09 05:41:00,
2013-08-08 23:46:00,77.5,42.7,29.69,NNE,20,0.0,0.0,29,0.00,,,0.00,0,WeatherCatV1.21B27,2013-08-09 05:46:00,
2013-08-08 23:51:00,77.2,42.5,29.69,NNE,20,0.0,0.0,29,0.00,,,0.00,0,WeatherCatV1.21B27,2013-08-09 05:51:00,
2013-08-08 23:56:00,76.9,43.1,29.70,NNE,20,0.0,0.0,30,0.00,,,0.00,0,WeatherCatV1.21B27,2013-08-09 05:56:00,